User: anonymous   Login
Location: *
(48.8489°N, 2.3218°E)
Time: 06:45:30
(UTC+00:00)
Language:

SPOT 5 - Orbit

View from above orbital plane
View from above orbital plane
View from above satellite
View from above satellite

Ground track
Ground track

The orbit data is extracted from the following two-line orbital elements,

1 27421U 02021A   19292.74319248 -.00000019  00000-0  73828-5 0  9996
2 27421  98.3015   1.6402 0134212 228.0761 130.8949 14.52005343909678
Epoch (UTC): 19 October 2019 17:50:11
Eccentricity: 0.0134212
inclination: 98.3015°
perigee height: 624 km
apogee height: 814 km
right ascension of ascending node: 1.6402°
argument of perigee: 228.0761°
revolutions per day: 14.52005343
mean anomaly at epoch: 130.8949°
orbit number at epoch: 90967

The dashed part of the orbit path shows where the satellite is in the earth's shadow,  

DLR